Miscellaneous Local Product
Issued by NWS North Platte, NE

Home | Current Version | Previous Version | Text Only | Print | Product List | Glossary On
Versions: 1 2 3 4 5 6 7 8 9 10 11 12 13 14 15 16 17 18 19 20 21 22 23 24 25 26 27 28 29 30 31 32 33 34 35 36 37 38 39 40 41 42 43 44 45 46 47 48 49 50
000
AXUS43 KLBF 302110
MISLBF


WESTERN AND NORTH CENTRAL NEBRASKA HOURLY WEATHER ROUNDUP
NATIONAL WEATHER SERVICE NORTH PLATTE NE
400 PM CDT WED JUL 30 2014

***STATIONS NOT REPORTING VARIABLES SUCH AS SKY/WEATHER OR
PRESSURE ARE PROVIDED BY THE NEBRASKA DEPARTMENT OF
ROADS...RAWS...AND APRS NETWORKS...AND ARE NOT UNDER
NATIONAL WEATHER SERVICE QUALITY CONTROL***

...OBSERVATIONS IN AND NEAR THE EASTERN PANHANDLE OF NEBRASKA...

CITY           SKY/WX    TMP DP  RH WIND       PRES   REMARKS
PINE RIDGE     PTSUNNY   80  49  33 CALM      30.19F
CHADRON        PTSUNNY   84  45  25 SW10      30.18F
ALLIANCE       CLOUDY    77  51  40 SW5       30.23F
SIDNEY         PTSUNNY   72  57  59 SW15      30.29S
WHITECLAY        N/A     82  46  28 W3          N/A
RUSHVILLE        N/A     82  42  24 SW9         N/A
GORDON           N/A     87  45  22 W9          N/A
CRESCENT LAKE    N/A     77  54  44 SW6         N/A
LISCO            N/A     79  45  29 CALM        N/A
BIG SPRINGS      N/A     74  58  57 CALM        N/A
$$

...OBSERVATIONS IN NORTH CENTRAL NEBRASKA...

CITY           SKY/WX    TMP DP  RH WIND       PRES   REMARKS
VALENTINE      MOSUNNY   84  48  28 VRB5      30.16S
THEDFORD       PTSUNNY   80  51  35 SE5       30.20S
AINSWORTH      MOSUNNY   81  49  33 E5        30.17S
O`NEILL        PTSUNNY   81  56  42 SE3       30.15F
ORD            MOSUNNY   81  55  40 N5        30.14F
BROKEN BOW     MOSUNNY   80  54  40 NW3       30.17S
BROWNLEE         N/A     87  45  22 W3          N/A
SPRINGVIEW       N/A     84  56  37 CALM        N/A
DUNNING          N/A     85  51  30 W3          N/A
ROSE             N/A     85  57  38 CALM        N/A
NEWPORT          N/A     82  53  37 CALM        N/A
SARGENT          N/A     82  55  38 CALM        N/A
COMSTOCK         N/A     86  59  39 E6          N/A
CHAMBERS         N/A     86  55  34 N3          N/A
EWING            N/A     79  58  47 CALM        N/A
$$

...OBSERVATIONS IN SOUTHWEST NEBRASKA AND FAR NORTHEAST COLORADO...

CITY           SKY/WX    TMP DP  RH WIND       PRES   REMARKS
WRAY             N/A     74  55  51 SE5       30.27S
HOLYOKE        FAIR      77  55  47 S3        30.27R
IMPERIAL       MOSUNNY   76  54  46 CALM      30.23S
OGALLALA       PTSUNNY   75  52  44 S5        30.22S
NORTH PLATTE   PTSUNNY   79  53  40 S6        30.18S
MCCOOK         MOSUNNY   78  55  44 CALM      30.19F
LEXINGTON      PTSUNNY   78  57  48 SE6       30.18S
PAXTON           N/A     78  56  46 CALM        N/A
SUTHERLAND       N/A     84  52  32 CALM        N/A
BRADY            N/A     80  51  35 CALM        N/A
GOTHENBURG       N/A     83  49  30 E5          N/A
$$

...SOME WEATHER OBSERVATIONS FROM AROUND THE REGION...

CITY           SKY/WX    TMP DP  RH WIND       PRES   REMARKS
DENVER         LGT RAIN  60  57  89 NE7       30.35S
LARAMIE        LGT RAIN  58  51  78 SE7       30.41S
CHEYENNE       LGT RAIN  60  55  83 S8        30.38S
SCOTTSBLUFF    CLOUDY    76  51  41 VRB3      30.26S
RAPID CITY     MOSUNNY   85  42  22 NW12      30.17F
PIERRE         MOSUNNY   87  53  31 VRB7      30.08F
WINNER         PTSUNNY   86  48  26 N3        30.12F
SIOUX FALLS    MOSUNNY   79  54  41 NW6       30.12F
OMAHA          MOSUNNY   82  51  34 VRB6      30.11F
GRAND ISLAND   MOSUNNY   79  54  41 VRB3      30.16S
KANSAS CITY    CLOUDY    80  54  40 N6        30.09F
WICHITA        LGT RAIN  68  65  90 NE12      30.09S FOG
HAYS           PTSUNNY   73  57  56 NE13      30.17R
LIBERAL        CLOUDY    70  63  78 NE18      30.16S
GOODLAND       CLOUDY    70  55  59 E9        30.26F
$$



USA.gov is the U.S. government's official web portal to all federal, state and local government web resources and services.